Time,TemperatureF,DewpointF,PressureIn,WindDirection,WindDirectionDegrees,WindSpeedMPH,WindSpeedGustMPH,Humidity,HourlyPrecipIn,Conditions,Clouds,dailyrainin,SoftwareType,DateUTC
2013-06-05 00:02:00,54.4,50.3,29.90,NNW,342,2.0,7.0,86,0.00,,,0.00,Wunderground v.1.15,2013-06-05 05:02:00,
2013-06-05 00:07:00,54.4,50.3,29.90,NNE,18,2.0,7.0,86,0.00,,,0.00,Wunderground v.1.15,2013-06-05 05:07:00,
2013-06-05 00:13:00,54.4,50.3,29.90,NE,46,1.0,2.0,86,0.00,,,0.00,Wunderground v.1.15,2013-06-05 05:13:00,
2013-06-05 00:18:00,54.3,50.2,29.90,NNW,340,1.0,2.0,86,0.00,,,0.00,Wunderground v.1.15,2013-06-05 05:18:00,
2013-06-05 00:23:00,54.3,50.2,29.90,NNW,347,1.0,2.0,86,0.00,,,0.00,Wunderground v.1.15,2013-06-05 05:23:00,
2013-06-05 00:28:00,54.3,50.2,29.90,NW,316,1.0,2.0,86,0.00,,,0.00,Wunderground v.1.15,2013-06-05 05:28:00,
2013-06-05 00:33:00,54.3,50.5,29.90,North,6,1.0,2.0,87,0.00,,,0.00,Wunderground v.1.15,2013-06-05 05:33:00,
2013-06-05 00:39:00,54.3,50.5,29.90,NNW,344,1.0,3.0,87,0.00,,,0.00,Wunderground v.1.15,2013-06-05 05:39:00,
2013-06-05 00:44:00,54.3,50.5,29.90,NW,315,1.0,2.0,87,0.00,,,0.00,Wunderground v.1.15,2013-06-05 05:44:00,
2013-06-05 00:49:00,54.3,50.5,29.90,NNW,330,1.0,2.0,87,0.00,,,0.00,Wunderground v.1.15,2013-06-05 05:49:00,
2013-06-05 00:54:00,54.3,50.5,29.90,NNW,328,1.0,1.0,87,0.00,,,0.00,Wunderground v.1.15,2013-06-05 05:54:00,
2013-06-05 00:59:00,54.3,50.5,29.90,NNW,344,1.0,2.0,87,0.00,,,0.00,Wunderground v.1.15,2013-06-05 05:59:00,
2013-06-05 01:04:00,54.2,50.4,29.90,NW,324,1.0,3.0,87,0.00,,,0.00,Wunderground v.1.15,2013-06-05 06:04:00,
2013-06-05 01:10:00,54.3,50.5,29.90,NNW,337,1.0,1.0,87,0.00,,,0.00,Wunderground v.1.15,2013-06-05 06:10:00,
2013-06-05 01:15:00,54.3,50.5,29.89,NNE,18,0.0,2.0,87,0.00,,,0.00,Wunderground v.1.15,2013-06-05 06:15:00,
2013-06-05 01:20:00,54.3,50.5,29.89,NNE,23,0.0,1.0,87,0.00,,,0.00,Wunderground v.1.15,2013-06-05 06:20:00,
2013-06-05 01:25:00,54.3,50.5,29.89,NW,309,1.0,1.0,87,0.00,,,0.00,Wunderground v.1.15,2013-06-05 06:25:00,
2013-06-05 01:30:00,54.3,50.5,29.89,North,354,1.0,2.0,87,0.00,,,0.00,Wunderground v.1.15,2013-06-05 06:30:00,
2013-06-05 01:35:00,54.3,50.5,29.89,NNW,332,1.0,2.0,87,0.00,,,0.00,Wunderground v.1.15,2013-06-05 06:35:00,
2013-06-05 01:40:00,54.3,50.5,29.89,NNW,338,1.0,1.0,87,0.00,,,0.00,Wunderground v.1.15,2013-06-05 06:40:00,
2013-06-05 01:45:00,54.3,50.8,29.89,NNW,335,0.0,2.0,88,0.00,,,0.00,Wunderground v.1.15,2013-06-05 06:45:00,
2013-06-05 01:51:00,54.3,50.8,29.90,NNW,334,1.0,1.0,88,0.00,,,0.00,Wunderground v.1.15,2013-06-05 06:51:00,
2013-06-05 01:56:00,54.3,50.8,29.90,West,279,0.0,1.0,88,0.00,,,0.00,Wunderground v.1.15,2013-06-05 06:56:00,
2013-06-05 02:02:00,54.4,50.9,29.90,West,271,0.0,1.0,88,0.00,,,0.00,Wunderground v.1.15,2013-06-05 07:02:00,
2013-06-05 02:06:00,54.4,50.9,29.90,North,352,0.0,1.0,88,0.00,,,0.00,Wunderground v.1.15,2013-06-05 07:06:00,
2013-06-05 02:11:00,54.4,50.9,29.90,North,353,0.0,1.0,88,0.00,,,0.00,Wunderground v.1.15,2013-06-05 07:11:00,
2013-06-05 02:16:00,54.4,50.9,29.91,NW,304,0.0,1.0,88,0.00,,,0.00,Wunderground v.1.15,2013-06-05 07:16:00,
2013-06-05 02:22:00,54.4,50.9,29.90,NW,304,0.0,1.0,88,0.00,,,0.00,Wunderground v.1.15,2013-06-05 07:22:00,
2013-06-05 02:28:00,54.4,51.2,29.90,NW,304,0.0,1.0,89,0.00,,,0.00,Wunderground v.1.15,2013-06-05 07:28:00,
2013-06-05 02:33:00,54.4,51.2,29.90,NNW,342,0.0,1.0,89,0.00,,,0.00,Wunderground v.1.15,2013-06-05 07:33:00,
2013-06-05 02:38:00,54.4,51.2,29.90,NNW,343,0.0,1.0,89,0.00,,,0.00,Wunderground v.1.15,2013-06-05 07:38:00,
2013-06-05 02:43:00,54.4,51.2,29.89,NE,53,0.0,1.0,89,0.00,,,0.00,Wunderground v.1.15,2013-06-05 07:43:00,
2013-06-05 02:48:00,54.3,51.1,29.90,NE,53,0.0,1.0,89,0.00,,,0.00,Wunderground v.1.15,2013-06-05 07:48:00,
2013-06-05 02:53:00,54.3,51.4,29.89,North,354,0.0,1.0,90,0.00,,,0.00,Wunderground v.1.15,2013-06-05 07:53:00,
2013-06-05 02:58:00,54.2,51.3,29.89,North,355,0.0,1.0,90,0.00,,,0.00,Wunderground v.1.15,2013-06-05 07:58:00,
2013-06-05 03:03:00,54.1,51.2,29.89,North,356,0.0,1.0,90,0.00,,,0.00,Wunderground v.1.15,2013-06-05 08:03:00,
2013-06-05 03:09:00,54.0,51.4,29.90,NNW,344,0.0,1.0,91,0.00,,,0.00,Wunderground v.1.15,2013-06-05 08:09:00,
2013-06-05 03:14:00,53.9,51.3,29.90,NNW,345,0.0,1.0,91,0.00,,,0.00,Wunderground v.1.15,2013-06-05 08:14:00,
2013-06-05 03:19:00,53.9,51.6,29.89,NNW,347,0.0,1.0,92,0.00,,,0.00,Wunderground v.1.15,2013-06-05 08:19:00,
2013-06-05 03:24:00,53.7,51.4,29.89,NNW,347,0.0,1.0,92,0.00,,,0.00,Wunderground v.1.15,2013-06-05 08:24:00,
2013-06-05 03:29:00,53.6,51.3,29.89,North,356,0.0,1.0,92,0.00,,,0.00,Wunderground v.1.15,2013-06-05 08:29:00,
2013-06-05 03:34:00,53.6,51.3,29.89,NNW,345,0.0,1.0,92,0.00,,,0.00,Wunderground v.1.15,2013-06-05 08:34:00,
2013-06-05 03:40:00,53.5,51.2,29.89,NNW,344,0.0,1.0,92,0.00,,,0.00,Wunderground v.1.15,2013-06-05 08:40:00,
2013-06-05 03:45:00,53.5,51.2,29.88,NNW,345,0.0,1.0,92,0.00,,,0.00,Wunderground v.1.15,2013-06-05 08:45:00,
2013-06-05 03:51:00,53.5,51.2,29.88,NNW,347,0.0,1.0,92,0.00,,,0.00,Wunderground v.1.15,2013-06-05 08:51:00,
2013-06-05 03:56:00,53.5,51.2,29.88,NNW,345,0.0,1.0,92,0.00,,,0.00,Wunderground v.1.15,2013-06-05 08:56:00,
2013-06-05 04:01:00,53.4,51.4,29.88,NNW,346,0.0,1.0,93,0.00,,,0.01,Wunderground v.1.15,2013-06-05 09:01:00,
2013-06-05 04:06:00,53.5,51.5,29.88,NNW,345,0.0,1.0,93,0.00,,,0.01,Wunderground v.1.15,2013-06-05 09:06:00,
2013-06-05 04:11:00,53.5,51.5,29.87,NNW,347,0.0,1.0,93,0.00,,,0.01,Wunderground v.1.15,2013-06-05 09:11:00,
2013-06-05 04:16:00,53.4,51.4,29.87,WNW,300,0.0,1.0,93,0.00,,,0.01,Wunderground v.1.15,2013-06-05 09:16:00,
2013-06-05 04:21:00,53.4,51.4,29.86,North,354,0.0,1.0,93,0.00,,,0.01,Wunderground v.1.15,2013-06-05 09:21:00,
2013-06-05 04:26:00,53.5,51.5,29.85,North,355,0.0,1.0,93,0.00,,,0.01,Wunderground v.1.15,2013-06-05 09:26:00,
2013-06-05 04:32:00,53.5,51.5,29.85,North,356,0.0,1.0,93,0.00,,,0.01,Wunderground v.1.15,2013-06-05 09:32:00,
2013-06-05 04:37:00,53.5,51.5,29.86,North,355,0.0,1.0,93,0.00,,,0.01,Wunderground v.1.15,2013-06-05 09:37:00,
2013-06-05 04:42:00,53.5,51.5,29.86,North,360,0.0,1.0,93,0.00,,,0.01,Wunderground v.1.15,2013-06-05 09:42:00,
2013-06-05 04:47:00,53.5,51.5,29.86,North,360,0.0,1.0,93,0.00,,,0.01,Wunderground v.1.15,2013-06-05 09:47:00,
2013-06-05 04:52:00,53.5,51.5,29.85,NE,48,0.0,1.0,93,0.00,,,0.01,Wunderground v.1.15,2013-06-05 09:52:00,
2013-06-05 04:57:00,53.5,51.5,29.85,NNE,29,0.0,1.0,93,0.00,,,0.01,Wunderground v.1.15,2013-06-05 09:57:00,
2013-06-05 05:03:00,53.5,51.5,29.86,North,7,0.0,1.0,93,0.00,,,0.01,Wunderground v.1.15,2013-06-05 10:03:00,
2013-06-05 05:08:00,53.5,51.2,29.86,NNE,23,0.0,1.0,92,0.00,,,0.01,Wunderground v.1.15,2013-06-05 10:08:00,
2013-06-05 05:13:00,53.6,51.3,29.86,NNE,23,0.0,1.0,92,0.00,,,0.01,Wunderground v.1.15,2013-06-05 10:13:00,
2013-06-05 05:18:00,53.6,51.3,29.86,North,352,0.0,1.0,92,0.00,,,0.01,Wunderground v.1.15,2013-06-05 10:18:00,
2013-06-05 05:23:00,53.6,51.3,29.87,North,354,0.0,1.0,92,0.00,,,0.01,Wunderground v.1.15,2013-06-05 10:23:00,
2013-06-05 05:29:00,53.7,51.4,29.87,NNW,337,0.0,1.0,92,0.00,,,0.01,Wunderground v.1.15,2013-06-05 10:29:00,
2013-06-05 05:34:00,53.7,51.4,29.88,NNW,337,0.0,1.0,92,0.00,,,0.01,Wunderground v.1.15,2013-06-05 10:34:00,
2013-06-05 05:39:00,53.8,51.5,29.87,NNW,337,0.0,1.0,92,0.00,,,0.01,Wunderground v.1.15,2013-06-05 10:39:00,
2013-06-05 05:44:00,53.8,51.5,29.87,NNW,337,0.0,1.0,92,0.00,,,0.01,Wunderground v.1.15,2013-06-05 10:44:00,
2013-06-05 05:50:00,53.8,51.5,29.87,NW,311,0.0,1.0,92,0.00,,,0.01,Wunderground v.1.15,2013-06-05 10:50:00,
2013-06-05 05:55:00,53.8,51.5,29.86,NW,310,0.0,1.0,92,0.00,,,0.01,Wunderground v.1.15,2013-06-05 10:55:00,
2013-06-05 06:00:00,53.8,51.5,29.86,NW,310,0.0,1.0,92,0.00,,,0.01,Wunderground v.1.15,2013-06-05 11:00:00,
2013-06-05 06:05:00,53.8,51.5,29.86,NW,311,0.0,1.0,92,0.00,,,0.01,Wunderground v.1.15,2013-06-05 11:05:00,
2013-06-05 06:10:00,53.9,51.6,29.86,NW,311,0.0,1.0,92,0.00,,,0.01,Wunderground v.1.15,2013-06-05 11:10:00,
2013-06-05 06:16:00,53.9,51.6,29.86,NW,309,0.0,1.0,92,0.00,,,0.01,Wunderground v.1.15,2013-06-05 11:16:00,
2013-06-05 06:21:00,53.9,51.6,29.86,NW,311,0.0,1.0,92,0.00,,,0.01,Wunderground v.1.15,2013-06-05 11:21:00,
2013-06-05 06:26:00,54.0,51.7,29.85,NW,311,0.0,1.0,92,0.00,,,0.01,Wunderground v.1.15,2013-06-05 11:26:00,
2013-06-05 06:31:00,54.1,51.8,29.85,NW,311,0.0,1.0,92,0.00,,,0.01,Wunderground v.1.15,2013-06-05 11:31:00,
2013-06-05 06:36:00,54.1,51.8,29.86,NW,305,0.0,1.0,92,0.00,,,0.01,Wunderground v.1.15,2013-06-05 11:36:00,
2013-06-05 06:41:00,54.1,51.8,29.86,NW,304,0.0,1.0,92,0.00,,,0.01,Wunderground v.1.15,2013-06-05 11:41:00,
2013-06-05 06:47:00,54.2,51.9,29.85,NW,316,0.0,1.0,92,0.00,,,0.01,Wunderground v.1.15,2013-06-05 11:47:00,
2013-06-05 06:52:00,54.2,51.9,29.85,NW,316,0.0,1.0,92,0.00,,,0.01,Wunderground v.1.15,2013-06-05 11:52:00,
2013-06-05 06:57:00,54.2,51.9,29.85,NW,316,0.0,1.0,92,0.00,,,0.01,Wunderground v.1.15,2013-06-05 11:57:00,
2013-06-05 07:02:00,54.3,52.0,29.85,NNW,342,0.0,1.0,92,0.00,,,0.01,Wunderground v.1.15,2013-06-05 12:02:00,
2013-06-05 07:07:00,54.3,52.0,29.85,NNW,342,0.0,1.0,92,0.00,,,0.01,Wunderground v.1.15,2013-06-05 12:07:00,
2013-06-05 07:13:00,54.3,52.0,29.85,NNW,342,0.0,1.0,92,0.00,,,0.01,Wunderground v.1.15,2013-06-05 12:13:00,
2013-06-05 07:18:00,54.4,52.1,29.85,NNW,342,0.0,1.0,92,0.00,,,0.01,Wunderground v.1.15,2013-06-05 12:18:00,
2013-06-05 07:23:00,54.4,52.1,29.85,NNW,342,0.0,1.0,92,0.00,,,0.01,Wunderground v.1.15,2013-06-05 12:23:00,
2013-06-05 07:28:00,54.4,52.1,29.85,NNW,337,0.0,1.0,92,0.00,,,0.01,Wunderground v.1.15,2013-06-05 12:28:00,
2013-06-05 07:33:00,54.5,52.2,29.85,NW,315,0.0,1.0,92,0.00,,,0.01,Wunderground v.1.15,2013-06-05 12:33:00,
2013-06-05 07:39:00,54.5,52.2,29.86,NW,315,0.0,1.0,92,0.00,,,0.01,Wunderground v.1.15,2013-06-05 12:39:00,
2013-06-05 07:44:00,54.6,52.3,29.86,NW,315,0.0,1.0,92,0.00,,,0.01,Wunderground v.1.15,2013-06-05 12:44:00,
2013-06-05 07:49:00,54.6,52.3,29.86,NW,314,0.0,1.0,92,0.00,,,0.01,Wunderground v.1.15,2013-06-05 12:49:00,
2013-06-05 07:54:00,54.6,52.3,29.86,NW,315,0.0,1.0,92,0.00,,,0.01,Wunderground v.1.15,2013-06-05 12:54:00,
2013-06-05 07:59:00,54.7,52.4,29.86,NW,316,0.0,1.0,92,0.00,,,0.01,Wunderground v.1.15,2013-06-05 12:59:00,
2013-06-05 08:05:00,54.7,52.4,29.86,NW,316,0.0,1.0,92,0.00,,,0.01,Wunderground v.1.15,2013-06-05 13:05:00,
2013-06-05 08:10:00,54.8,52.5,29.86,NW,315,0.0,1.0,92,0.00,,,0.01,Wunderground v.1.15,2013-06-05 13:10:00,
2013-06-05 08:15:00,54.8,52.5,29.86,NW,316,0.0,1.0,92,0.00,,,0.01,Wunderground v.1.15,2013-06-05 13:15:00,
2013-06-05 08:20:00,54.8,52.5,29.85,NW,316,0.0,1.0,92,0.00,,,0.01,Wunderground v.1.15,2013-06-05 13:20:00,
2013-06-05 08:25:00,54.8,52.8,29.85,NNW,336,0.0,1.0,93,0.00,,,0.01,Wunderground v.1.15,2013-06-05 13:25:00,
2013-06-05 08:31:00,54.8,52.5,29.85,NNW,344,0.0,1.0,92,0.00,,,0.02,Wunderground v.1.15,2013-06-05 13:31:00,
2013-06-05 08:36:00,54.8,52.5,29.86,NNW,340,0.0,1.0,92,0.00,,,0.02,Wunderground v.1.15,2013-06-05 13:36:00,
2013-06-05 08:41:00,54.9,52.6,29.86,NNW,340,0.0,1.0,92,0.00,,,0.02,Wunderground v.1.15,2013-06-05 13:41:00,
2013-06-05 08:46:00,54.9,52.6,29.86,NNW,340,0.0,1.0,92,0.00,,,0.02,Wunderground v.1.15,2013-06-05 13:46:00,
2013-06-05 08:51:00,54.9,52.6,29.86,NNW,340,0.0,1.0,92,0.00,,,0.02,Wunderground v.1.15,2013-06-05 13:51:00,
2013-06-05 08:57:00,54.9,52.6,29.86,NNW,342,0.0,1.0,92,0.00,,,0.02,Wunderground v.1.15,2013-06-05 13:57:00,
2013-06-05 09:02:00,54.9,52.6,29.86,NNW,342,0.0,1.0,92,0.00,,,0.02,Wunderground v.1.15,2013-06-05 14:02:00,
2013-06-05 09:07:00,54.9,52.6,29.86,NNW,342,0.0,1.0,92,0.00,,,0.03,Wunderground v.1.15,2013-06-05 14:07:00,
2013-06-05 09:12:00,55.0,52.7,29.86,NNW,342,0.0,1.0,92,0.00,,,0.03,Wunderground v.1.15,2013-06-05 14:12:00,
2013-06-05 09:17:00,55.0,52.7,29.86,NNW,342,0.0,1.0,92,0.08,,,0.04,Wunderground v.1.15,2013-06-05 14:17:00,
2013-06-05 09:23:00,55.1,52.8,29.85,NNE,18,0.0,1.0,92,0.06,,,0.04,Wunderground v.1.15,2013-06-05 14:23:00,
2013-06-05 09:28:00,55.1,52.8,29.86,NW,326,0.0,1.0,92,0.04,,,0.04,Wunderground v.1.15,2013-06-05 14:28:00,
2013-06-05 09:33:00,55.1,52.8,29.85,NNW,327,0.0,1.0,92,0.00,,,0.04,Wunderground v.1.15,2013-06-05 14:33:00,
2013-06-05 09:38:00,55.3,53.0,29.84,NNE,12,0.0,2.0,92,0.00,,,0.04,Wunderground v.1.15,2013-06-05 14:38:00,
2013-06-05 09:43:00,55.5,53.2,29.83,North,8,1.0,2.0,92,0.00,,,0.04,Wunderground v.1.15,2013-06-05 14:43:00,
2013-06-05 09:49:00,55.6,53.3,29.84,NNW,335,1.0,2.0,92,0.00,,,0.04,Wunderground v.1.15,2013-06-05 14:49:00,
2013-06-05 09:54:00,55.5,53.2,29.84,North,5,1.0,2.0,92,0.00,,,0.04,Wunderground v.1.15,2013-06-05 14:54:00,
2013-06-05 09:59:00,55.6,53.3,29.84,WNW,291,1.0,2.0,92,0.00,,,0.04,Wunderground v.1.15,2013-06-05 14:59:00,
2013-06-05 10:04:00,55.5,53.5,29.84,North,359,1.0,2.0,93,0.00,,,0.04,Wunderground v.1.15,2013-06-05 15:04:00,
2013-06-05 10:09:00,55.4,53.1,29.84,North,358,1.0,2.0,92,0.00,,,0.04,Wunderground v.1.15,2013-06-05 15:09:00,
2013-06-05 10:15:00,55.5,53.2,29.84,WNW,284,0.0,1.0,92,0.00,,,0.04,Wunderground v.1.15,2013-06-05 15:15:00,
2013-06-05 10:20:00,55.5,53.2,29.83,NNW,342,1.0,1.0,92,0.00,,,0.04,Wunderground v.1.15,2013-06-05 15:20:00,
2013-06-05 10:25:00,55.6,53.3,29.83,North,4,1.0,1.0,92,0.00,,,0.04,Wunderground v.1.15,2013-06-05 15:25:00,
2013-06-05 10:30:00,55.7,53.4,29.83,NNW,338,1.0,1.0,92,0.00,,,0.04,Wunderground v.1.15,2013-06-05 15:30:00,
2013-06-05 10:35:00,55.8,53.5,29.84,NNW,338,1.0,1.0,92,0.00,,,0.04,Wunderground v.1.15,2013-06-05 15:35:00,
2013-06-05 10:41:00,56.1,53.8,29.84,NW,323,0.0,1.0,92,0.00,,,0.04,Wunderground v.1.15,2013-06-05 15:41:00,
2013-06-05 10:46:00,56.1,54.1,29.84,NW,325,0.0,1.0,93,0.00,,,0.04,Wunderground v.1.15,2013-06-05 15:46:00,
2013-06-05 10:51:00,56.1,54.1,29.84,NW,315,0.0,1.0,93,0.00,,,0.04,Wunderground v.1.15,2013-06-05 15:51:00,
2013-06-05 10:56:00,56.2,53.9,29.84,WNW,300,0.0,1.0,92,0.00,,,0.04,Wunderground v.1.15,2013-06-05 15:56:00,
2013-06-05 11:01:00,56.3,54.3,29.84,WNW,293,0.0,1.0,93,0.00,,,0.04,Wunderground v.1.15,2013-06-05 16:01:00,
2013-06-05 11:07:00,56.4,54.4,29.85,WNW,285,0.0,1.0,93,0.00,,,0.04,Wunderground v.1.15,2013-06-05 16:07:00,
2013-06-05 11:12:00,56.7,54.4,29.84,WNW,285,0.0,1.0,92,0.00,,,0.04,Wunderground v.1.15,2013-06-05 16:12:00,
2013-06-05 11:17:00,56.8,54.8,29.85,WNW,286,0.0,1.0,93,0.00,,,0.04,Wunderground v.1.15,2013-06-05 16:17:00,
2013-06-05 11:22:00,56.8,54.8,29.85,WNW,285,0.0,1.0,93,0.00,,,0.04,Wunderground v.1.15,2013-06-05 16:22:00,
2013-06-05 11:27:00,57.0,55.0,29.85,WNW,285,0.0,1.0,93,0.00,,,0.04,Wunderground v.1.15,2013-06-05 16:27:00,
2013-06-05 11:32:00,56.8,54.8,29.84,NW,321,0.0,1.0,93,0.00,,,0.04,Wunderground v.1.15,2013-06-05 16:32:00,
2013-06-05 11:37:00,56.9,54.9,29.84,NW,321,0.0,1.0,93,0.00,,,0.04,Wunderground v.1.15,2013-06-05 16:37:00,
2013-06-05 11:43:00,57.1,55.1,29.84,NW,319,0.0,1.0,93,0.00,,,0.04,Wunderground v.1.15,2013-06-05 16:43:00,
2013-06-05 11:48:00,57.5,55.5,29.84,West,274,0.0,1.0,93,0.00,,,0.04,Wunderground v.1.15,2013-06-05 16:48:00,
2013-06-05 11:53:00,57.7,55.7,29.84,West,274,0.0,1.0,93,0.00,,,0.04,Wunderground v.1.15,2013-06-05 16:53:00,
2013-06-05 11:58:00,57.8,55.8,29.84,West,274,0.0,1.0,93,0.00,,,0.04,Wunderground v.1.15,2013-06-05 16:58:00,
2013-06-05 12:03:00,57.9,55.9,29.85,NNW,329,0.0,1.0,93,0.00,,,0.04,Wunderground v.1.15,2013-06-05 17:03:00,
2013-06-05 12:08:00,58.2,56.2,29.85,WNW,286,0.0,1.0,93,0.00,,,0.04,Wunderground v.1.15,2013-06-05 17:08:00,
2013-06-05 12:13:00,58.3,56.3,29.85,WNW,286,0.0,1.0,93,0.00,,,0.04,Wunderground v.1.15,2013-06-05 17:13:00,
2013-06-05 12:18:00,58.5,56.5,29.85,WNW,286,0.0,1.0,93,0.00,,,0.04,Wunderground v.1.15,2013-06-05 17:18:00,
2013-06-05 12:24:00,58.8,56.8,29.85,WNW,290,0.0,1.0,93,0.00,,,0.04,Wunderground v.1.15,2013-06-05 17:24:00,
2013-06-05 12:29:00,59.0,57.0,29.84,WNW,288,0.0,1.0,93,0.00,,,0.04,Wunderground v.1.15,2013-06-05 17:29:00,
2013-06-05 12:34:00,59.1,57.1,29.84,WNW,288,0.0,1.0,93,0.00,,,0.04,Wunderground v.1.15,2013-06-05 17:34:00,
2013-06-05 12:39:00,59.1,57.1,29.84,WNW,288,0.0,1.0,93,0.00,,,0.04,Wunderground v.1.15,2013-06-05 17:39:00,
2013-06-05 12:44:00,59.2,57.2,29.84,WNW,290,0.0,1.0,93,0.00,,,0.04,Wunderground v.1.15,2013-06-05 17:44:00,
2013-06-05 12:49:00,59.3,57.3,29.83,SSW,212,0.0,1.0,93,0.00,,,0.04,Wunderground v.1.15,2013-06-05 17:49:00,
2013-06-05 12:55:00,59.3,57.3,29.83,NNW,338,0.0,1.0,93,0.00,,,0.04,Wunderground v.1.15,2013-06-05 17:55:00,
2013-06-05 13:00:00,59.5,57.2,29.83,NNW,337,0.0,1.0,92,0.00,,,0.04,Wunderground v.1.15,2013-06-05 18:00:00,
2013-06-05 13:05:00,59.5,57.2,29.83,West,259,0.0,1.0,92,0.00,,,0.04,Wunderground v.1.15,2013-06-05 18:05:00,
2013-06-05 13:10:00,59.7,57.4,29.83,West,279,0.0,1.0,92,0.00,,,0.04,Wunderground v.1.15,2013-06-05 18:10:00,
2013-06-05 13:15:00,60.1,57.8,29.83,West,281,1.0,2.0,92,0.00,,,0.04,Wunderground v.1.15,2013-06-05 18:15:00,
2013-06-05 13:21:00,60.1,57.2,29.83,WSW,256,1.0,1.0,90,0.00,,,0.04,Wunderground v.1.15,2013-06-05 18:21:00,
2013-06-05 13:26:00,60.0,57.4,29.83,West,264,1.0,1.0,91,0.00,,,0.04,Wunderground v.1.15,2013-06-05 18:26:00,
2013-06-05 13:31:00,60.1,57.5,29.83,WNW,292,1.0,3.0,91,0.00,,,0.04,Wunderground v.1.15,2013-06-05 18:31:00,
2013-06-05 13:36:00,60.4,57.8,29.83,WNW,289,1.0,3.0,91,0.00,,,0.04,Wunderground v.1.15,2013-06-05 18:36:00,
2013-06-05 13:41:00,60.6,58.0,29.83,West,270,1.0,1.0,91,0.00,,,0.04,Wunderground v.1.15,2013-06-05 18:41:00,
2013-06-05 13:47:00,60.7,58.1,29.83,West,270,1.0,1.0,91,0.00,,,0.04,Wunderground v.1.15,2013-06-05 18:47:00,
2013-06-05 13:52:00,61.1,58.5,29.83,WNW,283,0.0,2.0,91,0.00,,,0.04,Wunderground v.1.15,2013-06-05 18:52:00,
2013-06-05 13:57:00,61.1,58.1,29.82,West,273,1.0,2.0,90,0.00,,,0.04,Wunderground v.1.15,2013-06-05 18:57:00,
2013-06-05 14:02:00,60.9,57.9,29.82,West,267,1.0,1.0,90,0.00,,,0.04,Wunderground v.1.15,2013-06-05 19:02:00,
2013-06-05 14:07:00,60.9,57.9,29.82,West,267,1.0,1.0,90,0.00,,,0.04,Wunderground v.1.15,2013-06-05 19:07:00,
2013-06-05 14:13:00,61.0,58.0,29.82,West,267,0.0,1.0,90,0.00,,,0.04,Wunderground v.1.15,2013-06-05 19:13:00,
2013-06-05 14:18:00,61.8,59.5,29.82,WNW,282,0.0,1.0,92,0.00,,,0.04,Wunderground v.1.15,2013-06-05 19:18:00,
2013-06-05 14:23:00,63.2,60.2,29.81,West,260,1.0,1.0,90,0.00,,,0.04,Wunderground v.1.15,2013-06-05 19:23:00,
2013-06-05 14:28:00,64.3,59.7,29.81,NNE,18,1.0,1.0,85,0.00,,,0.04,Wunderground v.1.15,2013-06-05 19:28:00,
2013-06-05 14:33:00,65.2,60.2,29.81,WSW,248,1.0,1.0,84,0.00,,,0.04,Wunderground v.1.15,2013-06-05 19:33:00,
2013-06-05 14:39:00,66.3,60.3,29.80,NNE,18,1.0,4.0,81,0.00,,,0.04,Wunderground v.1.15,2013-06-05 19:39:00,
2013-06-05 14:44:00,66.8,59.7,29.80,West,268,1.0,1.0,78,0.00,,,0.04,Wunderground v.1.15,2013-06-05 19:44:00,
2013-06-05 14:49:00,67.4,60.3,29.80,ESE,120,1.0,2.0,78,0.00,,,0.04,Wunderground v.1.15,2013-06-05 19:49:00,
2013-06-05 14:54:00,68.2,60.3,29.80,NNE,15,1.0,2.0,76,0.00,,,0.04,Wunderground v.1.15,2013-06-05 19:54:00,
2013-06-05 14:59:00,68.4,58.6,29.80,North,11,1.0,3.0,71,0.00,,,0.04,Wunderground v.1.15,2013-06-05 19:59:00,
2013-06-05 15:05:00,68.3,60.4,29.80,West,277,1.0,2.0,76,0.00,,,0.04,Wunderground v.1.15,2013-06-05 20:05:00,
2013-06-05 15:10:00,68.3,58.9,29.80,NNW,334,1.0,1.0,72,0.00,,,0.04,Wunderground v.1.15,2013-06-05 20:10:00,
2013-06-05 15:15:00,68.0,59.0,29.79,NNW,331,1.0,1.0,73,0.00,,,0.04,Wunderground v.1.15,2013-06-05 20:15:00,
2013-06-05 15:20:00,67.5,58.5,29.79,NNW,328,1.0,1.0,73,0.00,,,0.04,Wunderground v.1.15,2013-06-05 20:20:00,
2013-06-05 15:25:00,67.6,59.0,29.79,ENE,66,1.0,3.0,74,0.00,,,0.04,Wunderground v.1.15,2013-06-05 20:25:00,
2013-06-05 15:31:00,66.8,57.9,29.78,NE,54,1.0,1.0,73,0.00,,,0.04,Wunderground v.1.15,2013-06-05 20:31:00,
2013-06-05 15:36:00,66.3,58.9,29.78,East,93,1.0,1.0,77,0.00,,,0.04,Wunderground v.1.15,2013-06-05 20:36:00,
2013-06-05 15:41:00,65.6,57.8,29.79,NW,316,1.0,3.0,76,0.00,,,0.04,Wunderground v.1.15,2013-06-05 20:41:00,
2013-06-05 15:46:00,64.4,56.3,29.79,West,259,3.0,18.0,75,0.00,,,0.04,Wunderground v.1.15,2013-06-05 20:46:00,
2013-06-05 15:51:00,63.4,56.4,29.79,West,280,5.0,5.0,78,0.00,,,0.04,Wunderground v.1.15,2013-06-05 20:51:00,
2013-06-05 15:57:00,62.1,57.2,29.79,SW,221,2.0,5.0,84,0.00,,,0.04,Wunderground v.1.15,2013-06-05 20:57:00,
2013-06-05 16:02:00,61.1,56.9,29.80,WNW,293,2.0,3.0,86,0.00,,,0.04,Wunderground v.1.15,2013-06-05 21:02:00,
2013-06-05 16:07:00,60.7,56.8,29.80,NNE,25,2.0,3.0,87,0.00,,,0.04,Wunderground v.1.15,2013-06-05 21:07:00,
2013-06-05 16:12:00,60.4,56.5,29.80,NNW,340,1.0,3.0,87,0.00,,,0.04,Wunderground v.1.15,2013-06-05 21:12:00,
2013-06-05 16:17:00,60.1,56.2,29.80,NW,325,1.0,3.0,87,0.00,,,0.04,Wunderground v.1.15,2013-06-05 21:17:00,
2013-06-05 16:23:00,60.0,56.1,29.80,NE,44,1.0,3.0,87,0.00,,,0.04,Wunderground v.1.15,2013-06-05 21:23:00,
2013-06-05 16:28:00,59.7,55.8,29.80,SSW,197,2.0,3.0,87,0.00,,,0.04,Wunderground v.1.15,2013-06-05 21:28:00,
2013-06-05 16:33:00,59.7,56.1,29.80,North,1,2.0,2.0,88,0.00,,,0.04,Wunderground v.1.15,2013-06-05 21:33:00,
2013-06-05 16:38:00,60.0,56.1,29.80,NE,36,1.0,3.0,87,0.00,,,0.04,Wunderground v.1.15,2013-06-05 21:38:00,
2013-06-05 16:43:00,60.1,55.9,29.80,ENE,66,1.0,3.0,86,0.00,,,0.04,Wunderground v.1.15,2013-06-05 21:43:00,
2013-06-05 16:49:00,60.1,55.9,29.80,North,3,2.0,4.0,86,0.00,,,0.04,Wunderground v.1.15,2013-06-05 21:49:00,
2013-06-05 16:54:00,60.6,56.4,29.80,ENE,72,1.0,3.0,86,0.00,,,0.04,Wunderground v.1.15,2013-06-05 21:54:00,
2013-06-05 16:59:00,61.1,56.2,29.80,NE,44,1.0,3.0,84,0.00,,,0.04,Wunderground v.1.15,2013-06-05 21:59:00,
2013-06-05 17:04:00,62.0,57.1,29.80,East,94,1.0,1.0,84,0.00,,,0.04,Wunderground v.1.15,2013-06-05 22:04:00,
2013-06-05 17:09:00,62.6,57.0,29.80,East,96,1.0,3.0,82,0.00,,,0.04,Wunderground v.1.15,2013-06-05 22:09:00,
2013-06-05 17:15:00,63.6,57.7,29.80,ESE,104,1.0,2.0,81,0.00,,,0.04,Wunderground v.1.15,2013-06-05 22:15:00,
2013-06-05 17:20:00,64.7,58.0,29.80,NE,34,1.0,2.0,79,0.00,,,0.04,Wunderground v.1.15,2013-06-05 22:20:00,
2013-06-05 17:25:00,65.2,58.2,29.80,WNW,301,1.0,3.0,78,0.00,,,0.04,Wunderground v.1.15,2013-06-05 22:25:00,
2013-06-05 17:30:00,65.1,58.1,29.80,East,85,1.0,2.0,78,0.00,,,0.04,Wunderground v.1.15,2013-06-05 22:30:00,
2013-06-05 17:35:00,64.6,57.6,29.80,ENE,72,1.0,3.0,78,0.00,,,0.04,Wunderground v.1.15,2013-06-05 22:35:00,
2013-06-05 17:41:00,64.1,57.8,29.80,ENE,72,1.0,2.0,80,0.00,,,0.04,Wunderground v.1.15,2013-06-05 22:41:00,
2013-06-05 17:46:00,63.5,57.2,29.80,ENE,70,2.0,4.0,80,0.00,,,0.04,Wunderground v.1.15,2013-06-05 22:46:00,
2013-06-05 17:51:00,63.0,56.7,29.80,East,83,2.0,3.0,80,0.00,,,0.04,Wunderground v.1.15,2013-06-05 22:51:00,
2013-06-05 17:56:00,62.7,57.5,29.80,ENE,74,2.0,4.0,83,0.00,,,0.04,Wunderground v.1.15,2013-06-05 22:56:00,
2013-06-05 18:01:00,62.3,57.1,29.80,North,355,2.0,2.0,83,0.00,,,0.04,Wunderground v.1.15,2013-06-05 23:01:00,
2013-06-05 18:07:00,61.9,57.0,29.80,ENE,68,2.0,3.0,84,0.00,,,0.04,Wunderground v.1.15,2013-06-05 23:07:00,
2013-06-05 18:12:00,61.6,57.0,29.80,NNE,15,2.0,2.0,85,0.00,,,0.04,Wunderground v.1.15,2013-06-05 23:12:00,
2013-06-05 18:17:00,61.5,57.3,29.80,ENE,67,1.0,2.0,86,0.00,,,0.04,Wunderground v.1.15,2013-06-05 23:17:00,
2013-06-05 18:22:00,61.4,57.5,29.80,NNE,13,1.0,2.0,87,0.00,,,0.04,Wunderground v.1.15,2013-06-05 23:22:00,
2013-06-05 18:27:00,61.1,56.9,29.80,NNE,19,1.0,2.0,86,0.00,,,0.04,Wunderground v.1.15,2013-06-05 23:27:00,
2013-06-05 18:33:00,60.8,56.9,29.80,North,11,1.0,1.0,87,0.00,,,0.04,Wunderground v.1.15,2013-06-05 23:33:00,
2013-06-05 18:38:00,60.8,57.2,29.80,NE,39,1.0,1.0,88,0.00,,,0.04,Wunderground v.1.15,2013-06-05 23:38:00,
2013-06-05 18:43:00,60.9,57.3,29.80,NE,49,1.0,2.0,88,0.00,,,0.04,Wunderground v.1.15,2013-06-05 23:43:00,
2013-06-05 18:48:00,60.9,57.3,29.80,NE,53,1.0,2.0,88,0.00,,,0.04,Wunderground v.1.15,2013-06-05 23:48:00,
2013-06-05 18:53:00,60.8,56.9,29.80,ENE,72,1.0,2.0,87,0.00,,,0.04,Wunderground v.1.15,2013-06-05 23:53:00,
2013-06-05 18:59:00,60.5,56.9,29.80,ENE,57,1.0,2.0,88,0.00,,,0.04,Wunderground v.1.15,2013-06-05 23:59:00,
2013-06-05 19:04:00,60.3,56.7,29.80,NE,41,1.0,1.0,88,0.00,,,0.04,Wunderground v.1.15,2013-06-06 00:04:00,
2013-06-05 19:09:00,60.1,56.5,29.80,NE,52,1.0,1.0,88,0.00,,,0.04,Wunderground v.1.15,2013-06-06 00:09:00,
2013-06-05 19:14:00,59.9,56.3,29.81,ENE,58,1.0,2.0,88,0.00,,,0.04,Wunderground v.1.15,2013-06-06 00:14:00,
2013-06-05 19:19:00,59.7,56.5,29.80,NE,54,1.0,2.0,89,0.00,,,0.04,Wunderground v.1.15,2013-06-06 00:19:00,
2013-06-05 19:25:00,59.5,56.3,29.81,NNE,30,1.0,1.0,89,0.00,,,0.04,Wunderground v.1.15,2013-06-06 00:25:00,
2013-06-05 19:30:00,59.4,56.2,29.80,North,8,1.0,1.0,89,0.00,,,0.04,Wunderground v.1.15,2013-06-06 00:30:00,
2013-06-05 19:35:00,59.3,56.1,29.81,NNE,13,1.0,2.0,89,0.00,,,0.04,Wunderground v.1.15,2013-06-06 00:35:00,
2013-06-05 19:40:00,59.3,56.1,29.81,NNE,15,0.0,1.0,89,0.00,,,0.04,Wunderground v.1.15,2013-06-06 00:40:00,
2013-06-05 19:45:00,59.2,56.0,29.81,NNE,16,0.0,1.0,89,0.00,,,0.04,Wunderground v.1.15,2013-06-06 00:45:00,
2013-06-05 19:51:00,59.1,55.9,29.82,NE,36,0.0,1.0,89,0.00,,,0.04,Wunderground v.1.15,2013-06-06 00:51:00,
2013-06-05 19:56:00,59.0,55.8,29.82,NE,39,0.0,1.0,89,0.00,,,0.04,Wunderground v.1.15,2013-06-06 00:56:00,
2013-06-05 20:01:00,58.9,55.7,29.82,NE,52,0.0,1.0,89,0.00,,,0.04,Wunderground v.1.15,2013-06-06 01:01:00,
2013-06-05 20:06:00,58.8,55.6,29.82,NE,52,0.0,1.0,89,0.00,,,0.04,Wunderground v.1.15,2013-06-06 01:06:00,
2013-06-05 20:11:00,58.8,55.9,29.81,NE,52,0.0,1.0,90,0.00,,,0.04,Wunderground v.1.15,2013-06-06 01:11:00,
2013-06-05 20:16:00,58.5,55.6,29.82,ENE,68,1.0,1.0,90,0.00,,,0.04,Wunderground v.1.15,2013-06-06 01:16:00,
2013-06-05 20:22:00,58.4,55.5,29.82,NE,45,1.0,1.0,90,0.00,,,0.04,Wunderground v.1.15,2013-06-06 01:22:00,
2013-06-05 20:27:00,58.3,55.4,29.82,ENE,58,0.0,1.0,90,0.00,,,0.04,Wunderground v.1.15,2013-06-06 01:27:00,
2013-06-05 20:32:00,58.3,55.4,29.82,NE,54,0.0,1.0,90,0.00,,,0.04,Wunderground v.1.15,2013-06-06 01:32:00,
2013-06-05 20:37:00,58.2,55.3,29.82,NE,54,0.0,1.0,90,0.00,,,0.04,Wunderground v.1.15,2013-06-06 01:37:00,
2013-06-05 20:42:00,58.1,55.2,29.82,NE,54,0.0,1.0,90,0.00,,,0.04,Wunderground v.1.15,2013-06-06 01:42:00,
2013-06-05 20:47:00,58.0,55.4,29.82,NE,53,0.0,1.0,91,0.00,,,0.04,Wunderground v.1.15,2013-06-06 01:47:00,
2013-06-05 20:52:00,57.9,55.3,29.82,NE,53,0.0,1.0,91,0.00,,,0.04,Wunderground v.1.15,2013-06-06 01:52:00,
2013-06-05 20:57:00,57.8,55.2,29.82,NE,53,0.0,1.0,91,0.00,,,0.04,Wunderground v.1.15,2013-06-06 01:57:00,
2013-06-05 21:02:00,57.8,55.2,29.82,NE,53,0.0,1.0,91,0.00,,,0.04,Wunderground v.1.15,2013-06-06 02:02:00,
2013-06-05 21:07:00,57.7,55.1,29.82,NE,53,0.0,1.0,91,0.00,,,0.04,Wunderground v.1.15,2013-06-06 02:07:00,
2013-06-05 21:12:00,57.7,55.1,29.82,NE,53,0.0,1.0,91,0.00,,,0.04,Wunderground v.1.15,2013-06-06 02:12:00,
2013-06-05 21:18:00,57.7,55.4,29.82,NNE,27,0.0,1.0,92,0.00,,,0.04,Wunderground v.1.15,2013-06-06 02:18:00,
2013-06-05 21:23:00,57.7,55.4,29.82,NE,53,0.0,1.0,92,0.00,,,0.04,Wunderground v.1.15,2013-06-06 02:23:00,
2013-06-05 21:28:00,57.6,55.3,29.83,SW,216,0.0,1.0,92,0.00,,,0.04,Wunderground v.1.15,2013-06-06 02:28:00,
2013-06-05 21:33:00,57.6,55.3,29.83,ENE,68,1.0,1.0,92,0.00,,,0.04,Wunderground v.1.15,2013-06-06 02:33:00,
2013-06-05 21:38:00,57.5,55.2,29.83,ENE,64,1.0,2.0,92,0.00,,,0.04,Wunderground v.1.15,2013-06-06 02:38:00,
2013-06-05 21:43:00,57.3,55.0,29.83,NE,39,1.0,1.0,92,0.00,,,0.04,Wunderground v.1.15,2013-06-06 02:43:00,
2013-06-05 21:49:00,57.2,54.9,29.83,NE,37,1.0,1.0,92,0.00,,,0.04,Wunderground v.1.15,2013-06-06 02:49:00,
2013-06-05 21:54:00,57.2,54.9,29.83,NE,54,0.0,1.0,92,0.00,,,0.04,Wunderground v.1.15,2013-06-06 02:54:00,
2013-06-05 21:59:00,57.1,54.8,29.83,NE,54,0.0,1.0,92,0.00,,,0.04,Wunderground v.1.15,2013-06-06 02:59:00,
2013-06-05 22:04:00,57.0,54.7,29.83,NE,54,1.0,1.0,92,0.00,,,0.04,Wunderground v.1.15,2013-06-06 03:04:00,
2013-06-05 22:10:00,57.0,54.7,29.83,ENE,69,1.0,1.0,92,0.00,,,0.04,Wunderground v.1.15,2013-06-06 03:10:00,
2013-06-05 22:15:00,56.9,54.6,29.83,ENE,62,1.0,1.0,92,0.00,,,0.04,Wunderground v.1.15,2013-06-06 03:15:00,
2013-06-05 22:20:00,56.8,54.5,29.83,ENE,65,1.0,1.0,92,0.00,,,0.04,Wunderground v.1.15,2013-06-06 03:20:00,
2013-06-05 22:25:00,56.8,54.5,29.84,ENE,65,0.0,1.0,92,0.00,,,0.04,Wunderground v.1.15,2013-06-06 03:25:00,
2013-06-05 22:30:00,56.8,54.5,29.84,ENE,74,1.0,1.0,92,0.00,,,0.04,Wunderground v.1.15,2013-06-06 03:30:00,
2013-06-05 22:36:00,56.8,54.5,29.84,ENE,73,0.0,1.0,92,0.00,,,0.04,Wunderground v.1.15,2013-06-06 03:36:00,
2013-06-05 22:41:00,56.8,54.5,29.84,ENE,77,0.0,1.0,92,0.00,,,0.04,Wunderground v.1.15,2013-06-06 03:41:00,
2013-06-05 22:46:00,56.7,54.4,29.83,ENE,77,0.0,2.0,92,0.00,,,0.04,Wunderground v.1.15,2013-06-06 03:46:00,
2013-06-05 22:51:00,56.7,54.4,29.83,ENE,64,0.0,1.0,92,0.00,,,0.04,Wunderground v.1.15,2013-06-06 03:51:00,
2013-06-05 22:56:00,56.7,54.4,29.83,ENE,64,0.0,1.0,92,0.00,,,0.04,Wunderground v.1.15,2013-06-06 03:56:00,
2013-06-05 23:02:00,56.6,54.3,29.83,East,84,0.0,1.0,92,0.00,,,0.04,Wunderground v.1.15,2013-06-06 04:02:00,
2013-06-05 23:05:00,56.6,54.3,29.83,ENE,58,0.0,1.0,92,0.00,,,0.04,Wunderground v.1.15,2013-06-06 04:05:00,
2013-06-05 23:06:00,56.6,54.3,29.83,ENE,58,0.0,1.0,92,0.00,,,0.04,Wunderground v.1.15,2013-06-06 04:06:00,
2013-06-05 23:09:00,56.6,54.3,29.83,NNE,16,0.0,1.0,92,0.00,,,0.04,Wunderground v.1.15,2013-06-06 04:09:00,
2013-06-05 23:11:00,56.5,54.2,29.83,NNW,346,0.0,1.0,92,0.00,,,0.04,Wunderground v.1.15,2013-06-06 04:11:00,
2013-06-05 23:16:00,56.5,54.2,29.83,NNE,23,0.0,1.0,92,0.00,,,0.04,Wunderground v.1.15,2013-06-06 04:16:00,
2013-06-05 23:21:00,56.5,54.2,29.83,NE,43,1.0,1.0,92,0.00,,,0.04,Wunderground v.1.15,2013-06-06 04:21:00,
2013-06-05 23:26:00,56.4,54.1,29.83,ENE,75,1.0,1.0,92,0.00,,,0.04,Wunderground v.1.15,2013-06-06 04:26:00,
2013-06-05 23:31:00,56.3,54.0,29.83,NE,50,1.0,1.0,92,0.00,,,0.04,Wunderground v.1.15,2013-06-06 04:31:00,
2013-06-05 23:36:00,56.3,54.0,29.83,East,80,1.0,1.0,92,0.00,,,0.04,Wunderground v.1.15,2013-06-06 04:36:00,
2013-06-05 23:42:00,56.3,54.0,29.83,NE,55,1.0,1.0,92,0.00,,,0.04,Wunderground v.1.15,2013-06-06 04:42:00,
2013-06-05 23:47:00,56.2,53.9,29.83,ENE,77,1.0,2.0,92,0.00,,,0.04,Wunderground v.1.15,2013-06-06 04:47:00,
2013-06-05 23:52:00,56.1,53.8,29.83,East,95,1.0,1.0,92,0.00,,,0.04,Wunderground v.1.15,2013-06-06 04:52:00,
2013-06-05 23:57:00,56.1,53.8,29.83,East,81,0.0,1.0,92,0.00,,,0.04,Wunderground v.1.15,2013-06-06 04:57:00,